Regional Weather Roundup
Issued by NWS

Home | Current Version | Previous Version | Graphics & Text | Print | Product List | Glossary On
Versions: 1 2 3 4 5 6 7 8 9 10 11 12 13 14 15 16 17 18 19 20 21 22 23 24 25 26 27 28 29 30 31 32 33 34 35 36 37 38 39 40 41 42 43 44 45 46 47 48 49 50
000
ASUS43 KOAX 221710
RWRNE

WEATHER ROUNDUP FOR NEBRASKA
NATIONAL WEATHER SERVICE OMAHA NE
1200 PM CDT MON SEP 22 2014

NOTES: SATELLITE DATA IS BEING USED TO AUGMENT CLOUD COVER ABOVE
       12000 FEET.
       "FAIR" INDICATES FEW OR NO CLOUDS BELOW 12,000 FEET WITH NO
       SIGNIFICANT WEATHER AND/OR OBSTRUCTIONS TO VISIBILITY.

  * THESE STATIONS DO NOT REPORT WEATHER SUCH AS RAIN...SNOW OR FOG.

NEZ001>004-019>022-054>056-221800-
NEBRASKA PANHANDLE

CITY           SKY/WX    TMP DP  RH WIND       PRES   REMARKS
SCOTTSBLUFF    LGT RAIN  58  53  84 SE8       30.13F
ALLIANCE       CLOUDY    66  46  48 S20       30.14F
CHADRON        PTSUNNY   71  48  43 S18       30.06F
KIMBALL        CLOUDY    66  50  56 S18       30.16F
SIDNEY         CLOUDY    70  49  47 S24G30    30.18F
$$

NEZ057>060-069>072-079>082-221800-
SOUTHWEST NEBRASKA

CITY           SKY/WX    TMP DP  RH WIND       PRES   REMARKS
NORTH PLATTE   PTSUNNY   69  46  43 SE13      30.22F
IMPERIAL       CLOUDY    67  42  40 S21       30.23S
LEXINGTON      PTSUNNY   69  49  49 S17       30.27F
MCCOOK         LGT RAIN  72  42  34 S22       30.25F
OGALLALA       LGT RAIN  63  49  59 S14G21    30.21R
$$

NEZ005>010-023>029-035>040-094-221800-
NORTH CENTRAL NEBRASKA

CITY           SKY/WX    TMP DP  RH WIND       PRES   REMARKS
VALENTINE      PTSUNNY   69  43  38 S21G26    30.17F
AINSWORTH      PTSUNNY   67  44  42 S16       30.20F
BROKEN BOW     CLOUDY    66  46  48 S17G28    30.26F
O`NEILL        SUNNY     70  50  48 S14       30.25F
ORD            MOSUNNY   68  48  48 S14       30.25F
THEDFORD       CLOUDY    65  44  46 S17       30.22F
$$

NEZ041-046>049-061>064-073>077-083>087-221800-
SOUTH CENTRAL NEBRASKA

CITY           SKY/WX    TMP DP  RH WIND       PRES   REMARKS
GRAND ISLAND   SUNNY     69  47  45 S12       30.29F
AURORA         SUNNY     68  45  42 SW9       30.30S
HASTINGS       MOSUNNY   67  45  45 S12       30.29F
HEBRON         SUNNY     70  44  39 S8        30.31F
HOLDREGE       CLOUDY    67  46  46 S15       30.28F
KEARNEY *      PTSUNNY   66  48  52 SE15      30.29F
YORK           SUNNY     68  50  52 S9        30.30F
$$

NEZ011>018-030>034-042>045-221800-
NORTHEAST NEBRASKA

CITY           SKY/WX    TMP DP  RH WIND       PRES   REMARKS
NORFOLK        SUNNY     69  47  45 S13       30.28S
ALBION         SUNNY     68  46  44 S9G17     30.28F
BLAIR          SUNNY     69  50  50 S7        30.30F
COLUMBUS *     SUNNY     68  48  49 SW8       30.30F
FREMONT        SUNNY     68  50  51 S7        30.31S
TEKAMAH        SUNNY     71  49  45 S10       30.29F
WAYNE          SUNNY     70  49  47 SW7       30.29S
$$

NEZ050>053-065>068-078-088>093-221800-
SOUTHEAST NEBRASKA

CITY           SKY/WX    TMP DP  RH WIND       PRES   REMARKS
LINCOLN        SUNNY     69  49  48 S9        30.31F
OMAHA EPPLEY   MOSUNNY   67  50  54 S6        30.31F
BEATRICE       SUNNY     69  46  43 S9        30.31S
FALLS CITY     SUNNY     69  50  50 SE5       30.30F
NEBRASKA CITY    N/A     67  44  42 CALM      30.31F
PLATTSMOUTH    SUNNY     67  47  49 S6        30.31F
$$

NEZ044-045-051>053-067-221800-
OMAHA AREA

CITY           SKY/WX    TMP DP  RH WIND       PRES   REMARKS
OMAHA EPPLEY   MOSUNNY   67  50  54 S6        30.31F
BLAIR          SUNNY     69  50  50 S7        30.30F
FREMONT        SUNNY     68  50  51 S7        30.31S
MILLARD        SUNNY     68  51  53 S6        30.30F
OFFUTT AFB     SUNNY     69  55  61 S3        30.31F
PLATTSMOUTH    SUNNY     67  47  49 S6        30.31F
WAHOO          FAIR      70  45  40 S7        30.30F
$$



USA.gov is the U.S. government's official web portal to all federal, state and local government web resources and services.